Location: Albany
(35.0170°S, 117.8920°E)
Time: 09:25:39
(UTC+08:00)

S-56A Canister/Altair - Pass Details

Date: 23 January 2021
Orbit: 632 x 2501 km, 38.9° (Epoch: 25 February)

Event Time Altitude Azimuth Distance (km) Brightness Sun altitude
Rises 12:10:33 0° 329° (NNW) 5,225 11.9 74.2°
Reaches altitude 10° 12:13:54 10° 336° (NNW) 4,455 11.8 74.3°
Maximum altitude 12:25:49 44° 42° (NE) 3,057 11.6 74.3°
Drops below altitude 10° 12:39:37 10° 106° (ESE) 5,158 11.8 73.8°
Sets 12:43:47 0° 112° (ESE) 6,097 12.0 73.5°
